カタログに戻る

STARLINK-30988

運用中通信VLEO
NORAD 58529·PAYLOAD·🇺🇸 United States

打ち上げ Dec 7, 2023 から Cape Canaveral Space Force Station

Loading…

次のパス (今後24時間)

TLE

最新Source: CelesTrak SupGP

元期: Sep 14, 2026, 22:11 UTC

1 58529C 23191X   26257.92479167 -.00034838  00000+0 -12622-2 0  2571
2 58529  43.0026 114.6615 0001241 276.4817  68.0588 15.27586859    15

AllMySatでSTARLINK-30988をリアルタイム追跡

Download on the App Store